Regional Weather Roundup
Issued by NWS

Home | Current Version | Previous Version | Text Only | Print | Product List | Glossary Off
Versions: 1 2 3 4 5 6 7 8 9 10 11 12 13 14 15 16 17 18 19 20 21 22 23 24 25 26 27 28 29 30 31 32 33 34 35 36 37 38 39 40 41 42 43 44 45 46 47 48 49 50

000
ASUS44 KMEG 232010
RWRTN
TENNESSEE HOURLY STATE WEATHER ROUNDUP
NATIONAL WEATHER SERVICE MEMPHIS TN
300 PM CDT MON OCT 23 2017

TNZ002-004-019-021-049-052-054-088>092-232100-
WEST TENNESSEE

CITY           SKY/WX    TMP DP  RH WIND       PRES   REMARKS
MEMPHIS INTL   MOSUNNY   69  43  38 W10       29.94F
NWS MEMPHIS      N/A     69 N/A N/A MISG        N/A
JACKSON        SUNNY     66  46  48 W12       29.92F
DYERSBURG        N/A     68  46  45 NW7       29.91F
SOMERVILLE     SUNNY     68  43  40 VRB7      29.92F
COVINGTON      SUNNY     68  43  40 NW7G14    29.91F
UNION CITY     MOSUNNY   64  45  48 W6        29.89F
BOLIVAR        SUNNY     66  43  42 NW7G16    29.93F
PARIS          PTSUNNY   63  46  55 W8G18     29.88F
HUNTINGDON     MOSUNNY   64  46  52 W12       29.89F
LEXINGTON      MOSUNNY   63  46  55 VRB7G15   29.91F
SELMER         SUNNY     63  46  55 NW10G16   29.93F
SAVANNAH       SUNNY     63  46  55 NW7       29.92F
$$

TNZ008-025-027-028-033-062-065-066-232100-
NORTH MIDDLE TENNESSEE

CITY           SKY/WX    TMP DP  RH WIND       PRES   REMARKS
NASHVILLE      CLOUDY    60  52  74 W13G21    29.86F
PORTLAND       CLOUDY    57  54  88 W12       29.82S
CLARKSVILLE    CLOUDY    55  48  77 W15G26    29.87S
SMYRNA         LGT RAIN  58  54  86 W16       29.86F
COOKEVILLE     CLOUDY    59  54  82 SW18G28   29.83R
CROSSVILLE     PTSUNNY   57  53  86 W21G26    29.82F
$$

TNZ061-075-076-078-094-096-097-232100-
SOUTH MIDDLE TENNESSEE

CITY           SKY/WX    TMP DP  RH WIND       PRES   REMARKS
FAYETTEVILLE   CLOUDY    59  52  77 W10G17    29.90R
TULLAHOMA      CLOUDY    57  52  82 W14       29.88F
WINCHESTER     CLOUDY    57  52  82 W12         N/A
COLUMBIA       CLOUDY    59  52  77 VRB7G14   29.88F
SHELBYVILLE    CLOUDY    59  52  77 W17       29.88S
$$

TNZ017-018-042-046-047-232100-
NORTHEAST TENNESSEE

CITY           SKY/WX    TMP DP  RH WIND       PRES   REMARKS
TRI CITIES     CLOUDY    57  57 100 E6        29.81F FOG
ELIZABETHTON     N/A     57  55  94 CALM      29.83F FOG
$$

TNZ012-013-036-069-073-074-232100-
CENTRAL EAST TENNESSEE

CITY           SKY/WX    TMP DP  RH WIND       PRES   REMARKS
KNOXVILLE      MOSUNNY   69  61  75 S15       29.76F
OAK RIDGE      CLOUDY    68  61  78 S7        29.77F
DOWNTOWN KNOXV PTSUNNY   70  61  73 VRB6      29.76F
GATLINBURG     SUNNY     70  57  64 W10G16    29.77F
MORRISTOWN     PTSUNNY   66  59  77 SW9       29.78F
JACKSBORO      MOSUNNY   66  59  77 SW7G13    29.78F
$$

TNZ083-085-099-232100-
SOUTHEAST TENNESSEE

CITY           SKY/WX    TMP DP  RH WIND       PRES   REMARKS
CHATTANOOGA    MOSUNNY   67  50  54 W18G25    29.86R
DAYTON         PTCLDY    66  57  72 SW17G28   29.81R
$$

SKY/WX REPORTED AS FAIR MEANS FEW OR NO CLOUDS BELOW
12 THOUSAND FEET.





USA.gov is the U.S. government's official web portal to all federal, state and local government web resources and services.